DW4362 Weather Reports


time (UTC)temp
C
wind
direction
speed
KPH
gust
KPH
rain 1hr
cm
rain 24hr
cm
rain mn
cm
humidity
%
barometer
mb
20260509150155 18 343 3.2 8.0 0.23 1.88 0.46 95 1013.5
20260509144655 18 345 4.8 9.7 0.08 1.73 0.30 95 1012.5
20260509143155 18 330 0.0 0.0 0.13 1.73 0.30 95 1012.3
20260509141655 18 322 0.0 0.0 0.18 1.73 0.30 95 1012.0
20260509140155 18 329 0.0 3.2 0.13 1.65 0.23 95 1011.9
20260509134655 18 358 0.0 3.2 0.13 1.65 0.23 95 1012.0
20260509133155 18 84 0.0 0.0 0.08 1.60 0.18 95 1012.0
20260509131655 18 342 0.0 3.2 0.03 1.55 0.13 95 1012.3
20260509130155 18 124 0.0 3.2 0.00 1.52 0.10 95 1012.0
20260509121655 18 131 0.0 0.0 0.03 1.52 0.10 95 1010.8
20260509120155 18 357 0.0 0.0 0.03 1.52 0.10 95 1010.6
20260509114655 18 111 0.0 3.2 0.00 1.50 0.08 95 1010.6
20260509113155 18 249 0.0 0.0 0.00 1.50 0.08 95 1010.1
20260509111655 18 249 0.0 0.0 0.00 1.50 0.08 95 1009.8
20260509110155 18 249 0.0 0.0 0.00 1.50 0.08 95 1010.1
20260509104655 18 249 0.0 0.0 0.00 1.50 0.08 95 1008.9
20260509103155 18 249 0.0 0.0 0.00 1.50 0.08 95 1008.6
20260509101655 18 248 0.0 0.0 0.00 1.50 0.08 95 1008.8
20260509100154 18 250 0.0 0.0 0.00 1.50 0.08 95 1009.5
20260509093154 18 142 0.0 4.8 0.03 1.50 0.08 95 1008.6
20260509091653 18 117 3.2 3.2 0.05 1.50 0.08 95 1009.3
20260509090153 18 13 0.0 0.0 0.05 1.50 0.08 95 1011.2
20260509084653 18 13 0.0 0.0 0.05 1.50 0.08 95 1011.6
20260509081652 18 153 0.0 0.0 0.03 1.45 0.03 95 1011.3
20260509080152 18 153 0.0 0.0 0.03 1.45 0.03 94 1010.8
20260509074652 18 153 0.0 0.0 0.03 1.45 0.03 95 1010.8
20260509073152 18 153 0.0 0.0 0.00 1.42 0.00 94 1010.8
20260509071652 18 153 0.0 0.0 0.00 1.42 0.00 94 1010.9
20260509070151 18 153 0.0 0.0 0.00 1.42 0.00 94 1010.8
20260509064652 18 153 0.0 0.0 0.00 1.42 0.00 94 1011.2
20260509063152 18 153 0.0 0.0 0.00 1.42 0.00 94 1011.1
20260509061651 18 153 0.0 0.0 0.00 1.42 0.00 94 1011.2
20260509060152 18 153 0.0 0.0 0.00 1.42 0.00 94 1011.2
20260509054652 18 153 0.0 0.0 0.00 1.42 0.00 94 1011.7
20260509053152 18 152 0.0 0.0 0.00 1.42 0.00 94 1011.6
20260509050151 18 152 0.0 0.0 0.00 1.42 0.00 94 1011.8
20260509044651 18 26 0.0 0.0 0.00 1.42 1.42 94 1011.6
20260509043152 18 268 0.0 0.0 0.00 1.42 1.42 94 1011.6
20260509040151 18 144 3.2 9.7 0.03 1.42 1.42 94 1009.9
20260509031651 18 1 0.0 3.2 0.05 1.40 1.40 94 1011.7
20260509030151 18 176 4.8 4.8 0.10 1.40 1.40 94 1011.4
20260509024650 18 118 0.0 14.5 0.10 1.40 1.40 94 1011.0
20260509023150 18 134 0.0 3.2 0.08 1.37 1.37 94 1012.2
20260509020149 18 214 8.0 8.0 0.05 1.30 1.30 94 1013.2
20260509014649 18 237 0.0 12.9 0.05 1.30 1.30 94 1012.7
20260509013149 18 164 4.8 4.8 0.08 1.30 1.30 95 1012.6
20260509011649 18 233 0.0 0.0 0.05 1.27 1.27 95 1012.3
20260509004649 18 141 3.2 4.8 0.03 1.24 1.24 95 1012.2
20260509003149 18 158 0.0 3.2 0.00 1.22 1.22 95 1012.0
20260509000148 18 128 0.0 0.0 0.00 1.22 1.22 95 1011.8
20260508234648 18 68 0.0 3.2 0.05 1.22 1.22 95 1011.9
20260508233148 18 236 0.0 0.0 0.05 1.22 1.22 95 1012.6
20260508231648 18 359 4.8 4.8 0.10 1.22 1.22 95 1013.1
20260508230148 18 20 0.0 0.0 0.13 1.22 1.22 95 1013.7
20260508224648 18 1 0.0 3.2 0.13 1.17 1.17 95 1014.2
20260508221648 19 311 0.0 0.0 0.10 1.12 1.12 95 1014.4
20260508220148 19 328 0.0 0.0 0.08 1.09 1.09 95 1014.4
20260508213148 20 307 0.0 0.0 0.03 1.04 1.04 95 1013.3
20260508211648 20 307 0.0 0.0 0.00 1.02 1.02 95 1013.2
20260508204648 20 227 0.0 0.0 0.00 1.02 1.02 95 1013.0
20260508203148 20 211 0.0 0.0 0.03 1.02 1.02 95 1012.9
20260508201648 19 342 0.0 0.0 0.15 1.02 1.02 95 1012.8
20260508200148 20 99 0.0 0.0 0.94 1.02 1.02 95 1013.0
20260508194648 19 195 0.0 0.0 0.97 1.02 1.02 95 1013.1
20260508193148 19 167 0.0 0.0 0.97 0.99 0.99 95 1013.9
20260508191648 20 346 0.0 8.0 0.86 0.86 0.86 94 1014.0
20260508190148 20 235 0.0 0.0 0.08 0.08 0.08 93 1012.8
20260508183148 22 102 0.0 0.0 0.03 0.03 0.03 89 1012.7
20260508181649 22 160 0.0 0.0 0.00 0.00 0.00 85 1013.1
20260508180148 22 167 0.0 0.0 0.00 0.00 0.00 82 1012.9
20260508174648 22 250 0.0 0.0 0.00 0.00 0.00 82 1012.9
20260508173148 23 236 0.0 0.0 0.00 0.03 0.00 81 1013.1
20260508171648 23 110 3.2 3.2 0.00 0.05 0.00 82 1013.1
20260508170147 22 243 0.0 4.8 0.00 0.08 0.00 81 1013.4
20260508164647 22 191 4.8 4.8 0.00 0.30 0.00 82 1013.8
20260508163147 22 344 0.0 0.0 0.00 0.41 0.00 82 1014.1
20260508161647 22 8 3.2 3.2 0.00 0.41 0.00 82 1014.3
20260508160146 22 204 3.2 8.0 0.00 0.41 0.00 82 1014.3
20260508153146 20 68 0.0 0.0 0.00 0.43 0.00 87 1014.4